Weather in Skala

Greece     37°19′24″N   26°32′38″E
temp.,
°C
wind,
m/s
gust,
m/s
humid.,
%
clouds,
%
prec.,
mm/h
press.,
hPa
HPBL,
m
24 january, mon
mon2423:00+6nne774987 0.0 10211957
02:00+5nne34415 0.0 10211390
05:00+6ene4348100 0.0 10191220
08:00+5e4351100 0.1 10201193
11:00+6e6559100 0.0 10201173
14:00+7e7755100 0.1 10191574
17:00+6ene6762100 0.7 10191339
20:00+8ne111154100 1.7 10191941
25 january, tue
tue2523:00+7ne131261100 0.1 10191385
02:00+7nne121358100 0.3 10191247
05:00+7nne121355100 0.0 10181062
08:00+7n131358100 0.0 10191077
11:00+7n1212614 0.0 10201290
14:00+7n1313585 0.0 10191639
17:00+7n161663100 0.0 10192297
20:00+6n151467100 0.0 10201932
26 january, wed
wed2623:00+6n15156672 0.0 10211703
02:00+6n151565100 0.0 10201575
05:00+6n15156310 0.0 10201679
08:00+6n1415625 0.0 10211687
11:00+6n1415625 0.0 10211539
14:00+7nnw1415615 0.0 10201631
17:00+8nnw1314504 0.0 10211636
20:00+8n1213505 0.0 10221437
27 january, thu
thu2723:00+8n1213555 0.0 10221185
02:00+8n1213585 0.0 10231229
05:00+8n1113581 0.0 10231300
08:00+8n1213614 0.0 10241297
11:00+8n1010590 0.0 10251018
14:00+8n1011550 0.0 10241243
17:00+9n1213564 0.0 10241447
20:00+9n1212530 0.0 10251392
28 january, fri
fri2823:00+9n1011530 0.0 10251314
02:00+9n1010564 0.0 10251334
05:00+9n89595 0.0 10251265
08:00+9n77615 0.0 10261125
11:00+9n55614 0.0 1026896
14:00+9n44614 0.0 1025849
17:00+9nnw22614 0.0 1024711
20:00+9nne00595 0.0 1024565